TimeEDT,TemperatureF,Dew PointF,Humidity,Sea Level PressureIn,VisibilityMPH,Wind Direction,Wind SpeedMPH,Gust SpeedMPH,PrecipitationIn,Events,Conditions,WindDirDegrees,DateUTC
12:53 AM,84.0,77.0,79,30.05,10.0,ESE,4.6,-,N/A,,Clear,120,2013-08-17 04:53:00
1:53 AM,84.0,77.0,79,30.03,10.0,ESE,3.5,-,N/A,,Clear,110,2013-08-17 05:53:00
2:53 AM,84.0,77.0,79,30.03,10.0,East,4.6,-,N/A,,Clear,100,2013-08-17 06:53:00
3:53 AM,84.0,77.0,79,30.02,10.0,ESE,6.9,-,N/A,,Partly Cloudy,120,2013-08-17 07:53:00
4:53 AM,84.0,77.0,79,30.02,10.0,ESE,5.8,-,N/A,,Mostly Cloudy,110,2013-08-17 08:53:00
5:53 AM,84.0,77.0,79,30.03,10.0,ESE,5.8,-,N/A,,Partly Cloudy,120,2013-08-17 09:53:00
6:53 AM,82.9,75.9,79,30.03,10.0,ESE,5.8,-,N/A,,Clear,120,2013-08-17 10:53:00
7:53 AM,84.9,75.9,74,30.04,10.0,ESE,6.9,-,N/A,,Partly Cloudy,120,2013-08-17 11:53:00
8:53 AM,88.0,75.9,67,30.06,10.0,ESE,9.2,-,N/A,,Partly Cloudy,110,2013-08-17 12:53:00
9:53 AM,90.0,75.0,61,30.07,10.0,SE,11.5,-,N/A,,Scattered Clouds,140,2013-08-17 13:53:00
10:53 AM,91.0,73.9,57,30.07,10.0,SE,11.5,-,N/A,,Scattered Clouds,140,2013-08-17 14:53:00
11:53 AM,93.0,75.9,57,30.07,10.0,ESE,13.8,-,N/A,,Partly Cloudy,120,2013-08-17 15:53:00
12:53 PM,93.0,75.0,56,30.06,10.0,ESE,13.8,-,N/A,,Scattered Clouds,120,2013-08-17 16:53:00
1:53 PM,93.9,72.0,49,30.05,10.0,SE,12.7,-,N/A,,Partly Cloudy,130,2013-08-17 17:53:00
2:53 PM,93.9,72.0,49,30.04,10.0,ESE,12.7,19.6,N/A,,Clear,120,2013-08-17 18:53:00
3:53 PM,91.9,73.9,55,30.02,10.0,ESE,13.8,19.6,N/A,,Scattered Clouds,110,2013-08-17 19:53:00
4:53 PM,91.9,72.0,52,30.02,10.0,East,13.8,-,N/A,,Partly Cloudy,100,2013-08-17 20:53:00
5:53 PM,90.0,73.9,59,30.01,10.0,SE,12.7,-,N/A,,Clear,130,2013-08-17 21:53:00
6:32 PM,87.8,73.4,62,30.01,10.0,ESE,11.5,-,N/A,,Mostly Cloudy,120,2013-08-17 22:32:00
6:46 PM,89.6,75.2,62,30.02,10.0,East,11.5,-,N/A,,Scattered Clouds,90,2013-08-17 22:46:00
6:53 PM,89.1,75.9,65,30.02,10.0,East,11.5,-,N/A,,Mostly Cloudy,90,2013-08-17 22:53:00
7:03 PM,87.8,75.2,66,30.02,10.0,East,13.8,-,N/A,,Scattered Clouds,90,2013-08-17 23:03:00
7:53 PM,86.0,73.0,65,30.05,10.0,East,10.4,-,N/A,,Partly Cloudy,80,2013-08-17 23:53:00
8:53 PM,81.0,73.9,79,30.07,9.0,SE,4.6,-,0.01,Rain,Light Rain,140,2013-08-18 00:53:00
9:53 PM,84.0,75.9,76,30.07,10.0,East,6.9,-,0.00,,Clear,80,2013-08-18 01:53:00
10:53 PM,84.0,77.0,79,30.09,10.0,ESE,8.1,-,N/A,,Partly Cloudy,110,2013-08-18 02:53:00
11:53 PM,82.9,78.1,85,30.09,10.0,East,6.9,-,0.00,,Clear,90,2013-08-18 03:53:00